RH
15 16 16 17 18 18 18 18 19 24 28 37 35 29 20 12 7 7 7 6 6 8 9 9 11 13 16 19 21 20 20 30 60 84 83 79 68 62 56 56 59 57 52 51
21 21 21 25 32 36 31 30 22 18 16 10 9 6 5 5 6 6 6 8 10 10 10 12 16 18 19 19 19 24 49 77 83 78 67 60 56 58 62 63 57 51 50 45
18 17 12 8 9 9 7 7 7 5 6 5 7 7 6 6 8 9 10 12 13 15 16 17 16 16 18 30 55 79 80 71 63 60 61 64 63 62 59 53 52 46 39 31
9 9 8 8 8 9 10 10 10 9 10 10 11 11 11 12 13 14 14 14 14 14 16 28 48 69 83 85 76 70 66 63 64 68 63 60 59 57 58 53 42 36 32 30
40 41 31 38 28 24 18 29 21 20 18 17 17 18 18 18 24 31 43 56 71 81 87 91 89 82 74 68 64 64 65 65 64 65 68 60 58 60 53 40 36 35 33 30
41 36 34 38 39 41 52 53 56 58 58 61 65 69 71 77 80 80 79 75 72 72 70 66 62 65 70 74 77 75 74 86 87 70 63 56 50 45 38 37 38 36 32 29
63 60 57 58 54 50 45 40 38 36 38 40 40 43 46 48 49 49 51 54 58 63 66 71 82 97 100 96 93 92 94 77 69 61 56 55 46 40 40 42 40 36 30 22
60 64 68 73 68 63 58 57 56 57 59 62 61 62 64 67 69 70 71 72 73 75 78 86 82 88 95 96 82 68 67 68 65 60 54 45 42 46 48 43 34 21 15 14
64 67 69 67 68 69 71 74 78 76 74 70 70 67 70 76 80 82 79 73 75 79 89 96 97 97 96 91 83 77 72 67 62 55 47 47 52 49 38 23 17 16 17 16
65 68 69 71 75 76 78 80 83 82 79 80 84 86 87 90 95 97 98 99 100 100 100 100 98 98 96 94 85 77 68 62 55 51 53 53 40 27 20 18 18 18 16 14
71 77 70 79 78 80 84 81 78 77 83 89 91 95 96 96 96 97 97 98 100 100 100 100 100 100 100 97 93 88 82 74 66 59 46 32 23 21 20 18 17 16 15 11
82 90 81 78 80 80 80 85 82 82 83 92 98 99 100 100 99 100 100 100 99 98 98 100 100 100 100 97 95 99 87 62 43 36 29 25 23 20 17 18 18 17 10 4
89 96 86 83 80 80 78 78 86 91 93 98 100 100 100 100 100 100 100 100 100 100 100 100 100 100 100 97 86 58 53 62 50 28 23 20 18 18 15 13 12 6 6 7
83 77 80 86 81 83 86 88 93 99 100 100 100 100 100 100 100 100 100 100 100 100 100 100 99 100 94 82 85 85 56 30 27 24 23 23 21 19 14 7 4 5 9 15
87 84 83 80 81 82 89 97 100 100 100 100 100 100 100 100 100 100 100 100 100 100 100 99 97 99 98 79 48 36 33 30 29 28 25 22 16 8 5 6 7 9 11 49
79 78 81 82 80 85 93 98 100 100 100 100 100 100 100 100 100 100 100 100 99 100 100 97 90 76 53 43 39 36 36 33 29 23 16 8 6 7 9 10 12 18 43 76
82 81 81 78 81 87 90 93 97 100 100 100 98 100 100 100 100 99 100 99 98 96 86 69 57 51 46 43 42 38 32 25 16 8 7 9 12 13 15 17 24 72 91 98
79 78 79 80 83 88 93 96 97 99 98 97 100 100 100 100 99 96 92 86 82 75 69 59 54 49 48 46 37 28 20 11 8 10 12 15 22 28 27 59 89 99 96 100
84 83 87 88 85 85 91 96 98 100 100 98 95 92 89 88 83 75 68 64 66 60 56 58 58 52 41 33 24 14 10 13 16 18 21 34 38 39 85 100 100 100 100 100
87 90 90 82 73 71 74 74 76 80 80 75 72 72 70 66 60 53 47 47 68 64 62 57 47 37 29 17 11 13 22 23 21 21 37 39 41 66 100 100 100 100 100 100
76 77 77 75 75 69 66 70 71 71 69 66 61 54 47 45 44 47 55 64 65 59 50 42 30 19 12 12 16 32 37 29 23 34 41 38 57 97 100 100 100 100 100 100
59 60 59 61 64 67 67 64 60 56 53 51 48 44 40 43 57 64 66 62 56 47 38 22 13 14 17 26 39 50 44 27 27 36 36 59 88 99 100 99 98 100 100 100
70 66 59 56 53 52 51 52 52 48 44 39 40 49 62 67 66 61 53 42 31 20 14 15 18 28 45 58 68 62 47 27 30 34 67 95 100 98 94 97 100 100 100 100
66 62 58 55 46 42 44 46 42 37 38 46 56 63 59 48 39 27 21 16 15 17 19 25 42 60 73 81 70 61 38 27 36 76 97 100 100 98 99 100 100 100 100 100
54 52 52 56 56 50 44 40 38 49 63 64 52 34 26 22 17 15 17 20 21 26 36 56 76 83 80 62 57 58 26 35 82 94 95 95 95 97 100 100 100 100 100 100
56 58 60 54 46 42 42 48 52 46 35 26 18 15 15 17 20 22 26 33 41 63 74 61 42 40 42 46 59 30 33 85 94 100 98 96 97 100 100 100 100 100 100 100
61 52 41 39 44 42 35 26 19 13 12 14 16 19 20 22 27 35 48 72 84 62 46 51 56 43 44 51 30 30 85 96 100 98 98 98 100 100 100 100 100 100 100 100
Wind_Speed
19 20 22 24 26 29 32 34 36 34 35 36 42 42 41 41 42 44 44 44 41 40 41 42 42 42 43 44 46 48 50 51 52 54 55 55 55 57 59 60 58 55 52 54
24 25 26 27 30 33 34 35 36 37 32 34 38 42 43 42 43 43 41 38 39 41 43 43 44 46 47 48 50 51 53 54 55 55 56 58 59 59 58 55 53 55 57 60
24 27 29 26 27 32 34 36 39 39 36 39 39 42 42 41 40 40 40 41 43 44 45 46 47 49 50 52 53 54 54 54 55 57 58 58 58 56 55 56 58 60 61 64
19 22 25 25 26 30 32 33 37 36 36 36 36 38 39 42 42 42 43 44 45 46 48 48 50 52 53 53 54 54 55 57 58 58 57 55 55 57 59 61 62 64 66 69
24 24 25 25 28 31 32 33 36 36 37 39 40 40 42 43 44 44 46 47 48 50 51 51 52 53 54 54 55 56 56 56 54 54 56 58 60 62 63 64 67 70 73 76
30 32 33 31 34 35 37 36 39 41 42 43 44 44 45 46 46 47 48 50 51 52 53 54 54 53 53 54 54 53 52 55 58 58 61 63 65 67 68 71 74 76 78 81
34 36 34 36 39 40 41 44 44 45 45 46 47 48 49 49 50 51 52 53 54 54 54 54 55 56 55 53 52 54 57 59 61 63 66 68 69 70 74 76 80 82 84 85
36 37 39 39 41 41 42 44 45 45 45 44 46 47 48 50 51 51 52 53 53 53 53 53 51 50 53 56 56 57 60 63 66 68 70 71 73 76 79 81 83 84 86 88
37 35 42 46 45 47 47 47 48 47 47 46 47 47 47 48 49 50 51 50 49 48 49 51 54 54 55 58 60 63 65 67 68 69 71 74 78 80 82 83 86 90 95 98
44 39 46 49 49 50 51 51 51 51 50 49 49 49 51 52 53 54 54 54 53 53 52 53 55 57 60 62 64 66 68 69 70 72 75 78 80 82 84 88 94 99 102 105
48 46 51 51 53 52 52 53 54 54 55 55 54 54 54 55 55 55 55 55 54 54 55 57 59 60 62 64 65 66 68 70 73 75 77 79 81 86 91 95 100 103 106 108
52 50 52 53 54 57 56 56 56 56 57 58 59 59 59 59 59 58 56 55 56 58 58 59 61 62 62 65 66 67 69 71 74 76 80 84 88 91 94 100 103 106 105 95
54 55 55 55 56 58 58 59 60 59 59 59 61 61 60 60 61 60 58 58 59 60 60 60 60 61 61 63 65 68 70 73 77 82 86 91 95 99 102 101 104 96 79 71
57 58 57 59 59 60 60 60 60 59 57 56 57 58 59 59 59 58 57 58 59 58 55 54 56 58 62 65 68 72 76 79 84 88 93 96 100 104 107 104 92 75 59 48
52 52 52 54 55 55 55 54 53 52 52 52 53 54 55 55 55 55 55 53 52 51 53 56 58 62 69 73 76 78 82 86 90 94 98 103 105 102 91 81 72 59 45 34
47 47 46 46 46 47 46 46 45 45 47 50 52 52 51 48 46 47 48 51 53 55 59 64 68 72 75 80 83 84 87 91 96 101 102 99 91 83 75 65 55 42 34 33
43 43 42 41 40 41 40 40 40 39 40 43 45 45 43 45 48 50 52 55 59 63 68 71 73 77 82 85 87 89 92 97 99 96 88 82 75 65 57 48 39 33 32 36
37 38 38 39 39 39 39 39 40 40 41 42 43 45 48 50 53 55 58 61 65 69 73 75 79 81 84 86 90 95 98 94 86 80 73 62 54 47 41 36 33 33 34 38
40 41 41 42 42 43 43 43 43 43 45 47 50 52 54 56 59 62 64 67 72 75 75 78 80 83 87 92 97 92 83 75 70 63 55 48 43 40 35 34 34 35 37 38
40 42 43 41 40 41 44 46 48 50 52 54 55 55 58 61 65 68 70 73 75 79 79 80 83 87 91 91 82 74 67 65 60 53 48 42 39 33 32 32 32 35 37 34
39 41 43 45 45 45 46 48 50 52 54 57 59 62 66 70 73 75 77 77 75 79 81 85 87 86 79 72 67 63 61 57 52 47 42 38 31 29 31 31 34 35 32 32
41 42 43 45 47 49 51 53 57 60 62 65 67 70 73 76 77 78 78 81 82 84 85 83 74 67 65 62 61 60 55 49 47 42 37 30 29 30 31 33 33 31 30 30
48 48 49 52 54 56 59 61 64 67 70 73 75 76 78 78 79 80 80 82 84 80 71 62 60 60 61 60 59 55 50 46 42 34 27 28 30 32 32 32 31 30 29 26
50 53 57 59 62 63 65 67 69 75 76 76 77 77 78 80 82 83 82 76 67 60 59 59 60 60 60 57 53 50 45 42 30 25 27 31 33 31 31 30 29 26 24 21
56 59 63 66 67 68 69 74 76 75 76 76 77 79 81 81 78 70 62 60 60 61 62 64 62 58 55 50 45 44 40 29 24 27 29 30 30 30 30 27 24 21 16 14
61 64 65 69 72 74 76 76 76 77 81 81 76 70 64 59 59 60 59 60 63 64 60 55 51 50 46 41 39 36 26 22 25 27 29 29 30 29 25 22 19 13 11 7
64 68 73 75 76 78 80 80 78 73 67 62 57 55 57 57 58 60 61 62 58 53 51 50 49 44 37 33 30 22 19 23 25 26 28 28 27 24 21 17 11 9 7 7
Wind_Direction
240 243 247 250 255 259 262 266 268 269 269 269 271 271 270 269 273 277 280 282 279 278 280 281 280 280 280 283 285 285 286 289 291 292 294 295 296 296 297 298 298 297 296 296
249 252 253 256 264 269 268 267 269 270 270 272 271 272 275 277 278 280 279 277 275 275 276 277 278 279 281 283 286 289 290 290 291 293 296 296 295 296 297 297 297 297 296 295
256 261 261 262 269 270 269 269 270 270 272 270 269 273 276 276 277 276 276 277 277 278 279 281 282 284 284 285 287 289 290 292 294 295 294 295 296 296 296 295 294 294 295 297
266 269 274 275 276 274 275 276 277 281 279 278 276 275 277 279 278 279 279 279 279 280 281 282 284 285 286 287 289 290 291 291 291 293 294 294 294 293 293 294 295 297 298 299
274 267 268 268 267 267 267 269 274 273 274 274 275 276 275 275 276 277 278 280 283 284 285 286 286 287 288 288 289 289 290 291 291 292 293 292 292 293 295 296 297 299 299 299
285 284 283 282 278 277 275 275 273 274 275 277 278 279 280 280 281 282 283 284 283 283 284 284 286 287 287 288 289 289 288 290 291 292 292 293 295 295 296 299 301 301 300 299
291 289 289 287 286 283 284 281 281 282 283 286 287 286 285 284 284 285 285 284 285 285 286 286 287 287 288 287 287 288 290 289 290 292 294 296 297 300 301 302 301 300 299 299
293 295 295 292 289 290 290 290 291 292 292 289 287 286 286 286 286 285 285 286 286 286 286 286 287 286 285 287 289 289 290 292 295 296 297 299 300 301 301 301 300 300 300 301
289 293 292 290 292 292 291 291 293 293 292 291 290 289 288 287 285 283 283 283 283 283 283 284 284 286 287 288 289 291 293 295 296 297 299 300 301 301 302 301 301 303 304 304
285 287 288 288 291 291 291 291 292 291 291 290 290 289 287 285 284 283 283 283 283 283 285 287 288 288 288 290 291 292 295 296 297 298 299 300 302 302 301 303 305 305 305 306
284 284 283 287 288 287 287 289 290 291 292 290 289 288 287 286 284 283 282 283 284 285 286 286 287 289 291 292 293 294 295 297 299 301 301 302 301 302 305 306 306 307 308 309
286 285 285 286 286 287 287 287 287 287 287 288 287 287 286 286 284 283 282 283 283 285 286 287 289 290 292 293 295 298 299 301 302 303 302 303 304 304 306 307 308 309 310 310
289 287 287 287 285 284 284 284 284 284 285 286 286 287 287 287 285 284 284 284 285 286 288 289 290 293 295 298 301 302 303 303 303 304 305 305 305 306 306 306 308 310 309 308
284 285 285 285 284 283 283 283 283 284 285 286 287 287 287 286 285 285 286 286 288 290 291 292 293 298 301 301 301 303 304 304 305 305 305 306 307 307 307 308 308 307 306 303
286 287 288 289 289 289 289 288 287 285 284 284 285 285 284 284 285 286 288 288 288 290 295 297 299 301 301 302 303 304 304 304 304 305 307 308 308 308 308 307 308 308 304 296
294 295 297 299 298 297 296 293 292 291 290 289 289 289 288 288 288 288 291 294 297 299 300 302 304 303 303 302 303 303 304 305 307 308 308 309 308 307 308 308 307 304 300 298
297 298 301 301 301 300 299 297 295 295 296 295 295 295 294 294 295 297 299 302 304 303 301 301 302 301 302 302 303 305 307 308 309 310 309 309 309 307 306 304 300 298 297 303
296 299 302 303 302 302 301 300 299 297 296 295 295 295 295 298 299 301 302 302 300 299 299 300 300 301 302 304 306 308 310 311 311 311 310 309 306 307 304 303 299 301 302 306
294 297 299 300 301 302 302 301 300 299 297 296 297 300 301 301 301 301 301 302 300 299 300 301 302 304 306 308 311 313 312 313 313 313 311 309 308 306 303 303 301 301 304 306
293 293 294 296 297 300 299 299 299 300 300 300 301 301 301 300 300 301 302 302 300 300 302 303 304 307 309 311 311 312 315 315 314 310 310 307 307 304 301 303 303 303 306 308
294 293 293 294 297 299 300 301 301 300 299 300 301 301 302 303 302 302 300 300 300 301 304 306 308 309 309 309 311 314 317 314 310 308 306 305 304 302 305 305 305 306 307 309
301 301 302 302 303 304 305 304 303 302 303 303 303 302 301 300 298 298 300 301 301 302 303 305 307 307 309 312 314 316 316 311 310 306 306 305 303 307 308 307 308 308 309 310
301 303 304 304 304 304 304 302 302 302 303 303 300 297 296 297 298 299 298 300 301 302 304 306 308 310 311 313 314 315 314 307 306 305 304 306 311 313 312 312 312 312 311 308
300 302 303 303 302 303 303 300 300 303 299 295 294 296 297 297 298 300 300 301 303 306 308 309 309 309 309 309 311 312 308 307 305 304 309 314 314 312 314 314 313 313 311 308
302 301 301 300 299 299 299 299 300 295 294 295 296 297 298 299 300 301 302 305 307 309 310 308 306 304 305 306 307 309 307 304 305 309 314 313 313 316 317 316 316 315 314 313
298 298 298 300 300 298 297 295 295 296 295 295 297 298 298 299 301 303 304 306 306 306 304 304 304 303 303 302 306 304 300 300 308 312 313 314 318 318 319 318 316 310 315 311
300 302 303 301 297 297 297 298 298 298 299 301 303 304 304 303 303 304 303 303 303 302 302 302 302 301 299 302 302 297 297 306 313 315 317 320 321 322 322 317 311 312 300 300